Flag for U.S.A. Weather past 2 weeks in Idaho Falls, Idaho, U.S.A.

Now
51 °F

Sunny.


Feels Like: 48 °F
Forecast: 20 / 50 °F
Wind: 8 mph from Southwest

Location: Fanning Field

Current Time: Mar 6, 2015 at 3:23:59 PM

Latest Report: Mar 6, 2015 at 1:53 PM


Visibility: 10 mi

Pressure: 30.42 "Hg

Humidity: 27%

Dew point: 18 °F

Location of Idaho FallsLocation

Historic Weather in Idaho Falls — Graph

°F

Idaho Falls temperature yesterday

Maximum temperature yesterday: 45 °F (at 2:53 PM)
Minimum temperature yesterday: 18 °F (at 6:53 AM)
Average temperature yesterday: 32 °F

Past Weeks' High & Low Weather Summary

 TemperatureHumidityPressure
High54 °F (Feb 19, 2:53 PM)96% (Feb 21, 9:03 AM)30.53 "Hg (Feb 21, 9:03 AM)
Low9 °F (Mar 4, 6:53 AM)9% (Feb 23, 3:53 PM)29.68 "Hg (Mar 2, 10:53 PM)
Average30 °F53%30.13 "Hg
* Reported Feb 19 1:53 PM — Mar 6 1:53 PM, Idaho Falls, Weather by CustomWeather, © 2015

Note: Actual official high and low records may vary slightly from our data, if they occured in-between our weather recording intervals... More about our weather records

Advertising

Idaho Falls weather history for previous 24 hours

 ConditionsComfort  
Time TempWeatherWind HumidityBarometerVisibility
1:53 PM
Fri, Mar 6
51 °FSunny.8 mph27%30.42 "Hg10 mi
12:53 PM50 °FSunny.10 mph28%30.45 "Hg10 mi
11:53 AM46 °FSunny.10 mph34%30.47 "Hg10 mi
10:53 AM40 °FSunny.3 mph47%30.50 "Hg10 mi
9:53 AM36 °FSunny.No wind54%30.51 "Hg10 mi
8:53 AM29 °FSunny.3 mph66%30.53 "Hg10 mi
7:53 AM23 °FClear.6 mph78%30.53 "Hg10 mi
6:53 AM21 °FClear.No wind85%30.50 "Hg10 mi
5:53 AM22 °FClear.3 mph78%30.49 "Hg10 mi
4:53 AM22 °FClear.3 mph82%30.46 "Hg10 mi
3:53 AM24 °FClear.No wind77%30.44 "Hg10 mi
2:53 AM30 °FClear.3 mph66%30.41 "Hg10 mi
1:53 AM29 °FClear.5 mph66%30.43 "Hg10 mi
12:53 AM30 °FClear.6 mph64%30.42 "Hg10 mi
11:53 PM
Thu, Mar 5
33 °FClear.8 mph58%30.42 "Hg10 mi
10:53 PM34 °FPassing clouds.7 mph56%30.42 "Hg10 mi
9:53 PM36 °FClear.6 mph50%30.42 "Hg10 mi
8:53 PM32 °FClear.No wind56%30.44 "Hg10 mi
7:53 PM35 °FClear.No wind46%30.45 "Hg10 mi
6:53 PM41 °FSunny.No wind32%30.43 "Hg10 mi
5:53 PM42 °FPartly sunny.7 mph30%30.42 "Hg10 mi
4:53 PM44 °FSunny.10 mph29%30.41 "Hg10 mi
3:53 PM45 °FSunny.14 mph30%30.41 "Hg10 mi
Weather by CustomWeather, © 2015

See weather overviewHow to use our weather pages